Location: Agendoh
(31.0664°N, 8.9343°W)
Time: 14:41:53
(UTC+00:00)

Lacrosse 5 - Visible Passes

Search period start: 26 June 2022 00:00
Search period end: 06 July 2022 00:00
Orbit: 714 x 724 km, 57.0° (Epoch: 09 March)

Date Brightness Start Highest point End Pass type
(mag) Time Alt. Az. Time Alt. Az. Time Alt. Az.
26 Jun 4.3 00:57:42 10° NW 00:58:46 16° NW 00:58:46 16° NW visible
26 Jun 4.5 22:24:53 10° NNE 22:25:43 10° NNE 22:26:34 10° NE visible
27 Jun 3.7 00:04:34 10° NNW 00:07:06 29° NNW 00:07:06 29° NNW visible
27 Jun 3.4 23:11:47 10° NNW 23:15:29 30° NNE 23:15:29 30° NNE visible
28 Jun 3.9 22:19:25 10° N 22:22:51 18° NE 22:23:55 17° NE visible
29 Jun 3.9 00:01:10 10° NW 00:03:05 23° NW 00:03:05 23° NW visible
29 Jun 4.4 21:28:29 10° NNE 21:29:10 10° NNE 21:29:52 10° NE visible
29 Jun 3.0 23:08:02 10° NNW 23:11:35 42° N 23:11:35 42° N visible
30 Jun 3.1 22:15:15 10° NNW 22:19:47 31° NE 22:20:08 31° NE visible
30 Jun 4.3 23:58:11 10° WNW 23:59:19 16° WNW 23:59:19 16° WNW visible
01 Jul 3.9 21:22:53 10° N 21:26:18 18° NE 21:28:44 13° ENE visible
01 Jul 3.0 23:04:36 10° NW 23:07:55 40° NW 23:07:55 40° NW visible
02 Jul 4.4 20:32:07 10° NNE 20:32:37 10° NNE 20:33:08 10° NE visible
02 Jul 2.1 22:11:30 10° NNW 22:16:32 59° NE 22:16:35 59° NE visible
03 Jul 3.1 21:18:43 10° NNW 21:23:14 31° NE 21:25:17 23° E visible
03 Jul 3.5 23:01:37 10° WNW 23:04:29 26° W 23:04:29 26° W visible
04 Jul 3.8 20:26:22 10° N 20:29:45 17° NE 20:33:07 10° E visible
04 Jul 1.9 22:08:04 10° NW 22:13:08 69° SW 22:13:15 69° SW visible
05 Jul 2.1 21:14:57 10° NNW 21:20:00 58° NE 21:22:04 33° ESE visible
05 Jul 4.2 22:59:30 10° W 23:01:17 15° W 23:01:17 15° W visible
